Location: Waco, TX
(31.5480°N, 97.1670°W)
Time: 21:41:43
(UTC-06:00)

ISS - Pass Details

Date: 15 February 2019
Orbit: 403 x 411 km, 51.6° (Epoch: 22 February)

Event Time Altitude Azimuth Distance (km) Brightness Sun altitude
Rises 17:23:08 0° 309° (NW) 2,327 0.5 9.8°
Reaches altitude 10° 17:25:16 10° 303° (WNW) 1,465 -0.4 9.4°
Maximum altitude 17:28:26 45° 228° (SW) 561 -2.2 8.7°
Drops below altitude 10° 17:31:35 10° 154° (SSE) 1,461 -1.0 8.1°
Sets 17:33:42 0° 148° (SSE) 2,320 -0.1 7.7°
